Regional Weather Roundup
Issued by NWS

Home | Current Version | Previous Version | Graphics & Text | Print | Product List | Glossary On
Versions: 1 2 3 4 5 6 7 8 9 10 11 12 13 14 15 16 17 18 19 20 21 22 23 24 25 26 27 28 29 30 31 32 33 34 35 36 37 38 39 40 41 42 43 44 45 46 47 48 49 50
199
ASUS43 KDMX 241001
RWRIA

WEATHER ROUNDUP FOR IOWA
NATIONAL WEATHER SERVICE DES MOINES IA
500 AM CDT SAT JUN 24 2017

NOTE: "FAIR" INDICATES FEW OR NO CLOUDS BELOW 12,000 FEET WITH NO
SIGNIFICANT WEATHER AND/OR OBSTRUCTIONS TO VISIBILITY.

* - THESE STATIONS ARE NOT NWS STATIONS...THUS NOT UNDER NWS
QUALITY CONTROL.  THEY ALSO DO NOT REPORT WEATHER SUCH
AS PRECIPITATION OR FOG.

IAZ001>003-012>014-020>022-031>034-043>046-241100-
   NORTHWEST IOWA

CITY           SKY/WX    TMP DP  RH WIND       PRES   REMARKS
CARROLL *      CLEAR     50  43  76 W9        30.10S
DENISON *      CLEAR     50  41  71 CALM      30.14S
LE MARS *      CLEAR     48  41  76 CALM      30.13S
ORANGE CITY *  CLEAR     45  43  93 NW5       30.12S
SHELDON *      CLEAR     48  43  81 NW6       30.09S
SIOUX CITY     CLEAR     46  41  82 W3        30.14S
SPENCER        CLEAR     48  43  82 W8        30.09R
STORM LAKE *   CLEAR     46  43  87 W8        30.10S
$$

IAZ055>058-069>071-079>083-090>094-241100-
   SOUTHWEST IOWA

CITY           SKY/WX    TMP DP  RH WIND       PRES   REMARKS
ATLANTIC *     CLEAR     52  45  76 NW3       30.12S
AUDUBON *      CLEAR     52  45  76 CALM      30.13R
CLARINDA *     PTCLDY    50  48  93 CALM      30.16R
COUNCIL BLFS * PTCLDY    55  43  62 NW5       30.14S
CRESTON *      CLEAR     52  46  82 NW7       30.12S
HARLAN  *      CLEAR     48  45  87 NW3       30.16S
LAMONI         PTCLDY    54  49  83 NW9       30.10R
RED OAK *      PTCLDY    54  48  82 NW7       30.13S
SHENANDOAH *   CLEAR     52  48  87 SW5       30.15R
$$

IAZ047>049-059>061-072>074-084-241100-
   CENTRAL IOWA

CITY           SKY/WX    TMP DP  RH WIND       PRES   REMARKS
AMES           CLEAR     56  48  74 W10       30.07R
BOONE *        CLEAR     54  46  76 W9        30.07R
DES MOINES     CLEAR     55  48  77 W7        30.07R
GRINNELL*      CLEAR     55  49  82 NW8       30.05S
KNOXVILLE *    PTCLDY    55  50  82 NW8       30.05S
MARSHALLTOWN   CLEAR     52  49  89 NW9       30.03S
NEWTON *       CLEAR     55  50  82 W9        30.06R
PELLA *        CLEAR     57  50  78 NW7       30.06S
PERRY *          N/A     50  47  91 W7        30.09S
$$

IAZ004>006-015-016-023>025-035-036-241100-
   NORTH CENTRAL IOWA

CITY           SKY/WX    TMP DP  RH WIND       PRES   REMARKS
ALGONA *       CLEAR     48  46  93 W8        30.06S
CLARION *        N/A     50  48  93 W7        30.06R
ESTHERVILLE    CLEAR     48  45  89 W8        30.06S
FORT DODGE *   CLEAR     52  43  71 CALM      30.08S
MASON CITY     CLEAR     51  44  77 W10       30.04S
FOREST CITY *    N/A     50  39  66 NW7       30.04S
WEBSTER CITY * CLEAR     52  46  82 W9        30.05R
IOWA FALLS *     N/A     52  48  86 W9        30.06R
$$

IAZ007>011-017>019-026>030-037>042-050>054-066-241100-
   NORTHEAST IOWA

CITY           SKY/WX    TMP DP  RH WIND       PRES   REMARKS
CEDAR RAPIDS   CLEAR     53  53 100 W7        30.00R
CHARLES CITY * PTCLDY    54  52  94 W9        30.01S
CLINTON *      CLEAR     57  54  89 W9        29.97R
DECORAH *      CLEAR     54  50  87 CALM      29.97S
DUBUQUE        CLEAR     55  51  86 NW7       29.96R
MONTICELLO *   CLEAR     57  52  82 NW10      29.97S
WATERLOO       CLEAR     54  49  83 W9        30.00S
$$

IAZ064-065-067-068-078-241100-
   EAST CENTRAL IOWA

CITY           SKY/WX    TMP DP  RH WIND       PRES   REMARKS
DAVENPORT      CLEAR     57  53  86 W10       29.98R
IOWA CITY      CLEAR     57  51  80 W7        30.02R
MUSCATINE *    CLEAR     59  52  77 W9        30.01R
QUAD CITIES    CLEAR     62  52  69 NW10      29.97S
$$

IAZ062-063-075>077-085>089-095>099-241100-
   SOUTHEAST IOWA

CITY           SKY/WX    TMP DP  RH WIND       PRES   REMARKS
BURLINGTON     CLEAR     59  53  80 NW8       30.01R
FAIRFIELD *    PTCLDY    55  50  82 W10       30.04S
FORT MADISON * CLEAR     59  54  82 NW7       30.03R
KEOKUK *       CLEAR     59  52  77 NW8       30.02R
OTTUMWA        PTCLDY    53  51  93 SW6       30.05R
WASHINGTON *   MOCLDY    55  52  88 W8        30.04R
$$

ABBREVIATIONS USED IN REMARKS
   TC - TEMPERATURES IN CELSIUS
  WCI - WIND CHILL INDEX
   HX - HEAT INDEX
  VSB - VISIBILITY
$$





USA.gov is the U.S. government's official web portal to all federal, state and local government web resources and services.